Weather History for Fort Lauderdale, FL

Change the Weather History Date:

Saturday, May 3, 2014

  Actual Average Record
Temperature  
Mean Temperature 81 °F -  
Max Temperature 89 °F 85 °F 109 °F (1999)
Min Temperature 73 °F 69 °F 58 °F (1955)
Cooling Degree Days 16    
Growing Degree Days 31 (Base 50)    
Moisture  
Dew Point 70 °F    
Average Humidity 81    
Maximum Humidity 93    
Minimum Humidity 50    
Precipitation  
Precipitation 2.05 in - - ()
Sea Level Pressure  
Sea Level Pressure 29.96 in    
Wind  
Wind Speed 6 mph (SE)    
Max Wind Speed 21 mph    
Max Gust Speed 34 mph    
Visibility 7 miles    
Events Fog , Rain    
Averages and records for this station are not official NWS values.
T = Trace of Precipitation, MM = Missing Value Source: NWS Daily Summary

Daily Weather History Graph

Daily Weather History Graph

Search for Another Location

Airport:

Trip Planner

Search our weather history database for the weather conditions in past years. The results will help you decide how hot, cold, wet, or windy it might be!

Date:

Astronomy

May. 03, 2014 Rise Set
Actual Time 6:41 AM EDT 7:53 PM EDT
Civil Twilight 6:17 AM EDT 8:18 PM EDT
Nautical Twilight 5:48 AM EDT 8:47 PM EDT
Astronomical Twilight 5:18 AM EDT 9:17 PM EDT
Moon 10:14 AM EDT (5/3) 11:55 PM EDT (5/3)
Length of Visible Light 14h 00m
Length of Day
13h 11m
Waxing Crescent, 19% of the Moon is Illuminated
May 3
Waxing Crescent
May 6
First Quarter
May 14
Full
May 21
Last Quarter
May 28
New

Hourly Weather History & Observations

Time (EDT) Temp. Heat Index Dew Point Humidity Pressure Visibility Wind Dir Wind Speed Gust Speed Precip Events Conditions
12:53 AM 75.9 °F - 69.1 °F 79% 29.98 in 10.0 mi Calm Calm - N/A   Clear
1:53 AM 75.0 °F - 68.0 °F 79% 29.96 in 10.0 mi NE 4.6 mph - N/A   Clear
2:53 AM 75.9 °F - 68.0 °F 76% 29.94 in 10.0 mi Calm Calm - N/A   Clear
3:53 AM 75.0 °F - 69.1 °F 82% 29.94 in 10.0 mi Calm Calm - N/A   Scattered Clouds
4:53 AM 75.9 °F - 70.0 °F 82% 29.92 in 10.0 mi ESE 4.6 mph - N/A   Clear
5:53 AM 75.9 °F - 71.1 °F 85% 29.93 in 10.0 mi SSE 3.5 mph - N/A   Partly Cloudy
6:53 AM 77.0 °F - 71.1 °F 82% 29.93 in 10.0 mi SE 3.5 mph - N/A   Scattered Clouds
7:53 AM 79.0 °F - 72.0 °F 79% 29.95 in 10.0 mi Calm Calm - N/A   Mostly Cloudy
8:53 AM 81.0 °F 84.9 °F 71.1 °F 72% 29.94 in 10.0 mi South 6.9 mph - N/A   Clear
9:53 AM 82.0 °F 86.3 °F 71.1 °F 69% 29.96 in 10.0 mi SW 8.1 mph - N/A   Clear
10:53 AM 84.0 °F 87.0 °F 68.0 °F 58% 29.97 in 10.0 mi South 8.1 mph - N/A   Scattered Clouds
11:53 AM 84.9 °F 88.8 °F 69.1 °F 59% 29.97 in 10.0 mi South 8.1 mph - N/A   Scattered Clouds
12:53 PM 87.1 °F 91.3 °F 69.1 °F 55% 29.96 in 10.0 mi SW 11.5 mph - N/A   Mostly Cloudy
1:53 PM 89.1 °F 92.9 °F 68.0 °F 50% 29.95 in 10.0 mi SSW 12.7 mph 17.3 mph N/A   Mostly Cloudy
2:53 PM 84.9 °F 88.8 °F 69.1 °F 59% 29.95 in 5.0 mi SSE 19.6 mph 27.6 mph 0.03 in Rain Light Rain
2:56 PM 81.0 °F 84.9 °F 71.1 °F 72% 29.93 in 2.5 mi SSE 20.7 mph 34.5 mph 0.04 in Rain Heavy Rain
3:07 PM 78.1 °F - 71.1 °F 79% 29.94 in 8.0 mi SE 10.4 mph - 0.04 in Rain Light Rain
3:16 PM 75.9 °F - 71.1 °F 85% 29.96 in 0.5 mi SSE 8.1 mph 18.4 mph 0.43 in Rain Heavy Rain
3:27 PM 75.0 °F - 70.0 °F 84% 29.97 in 1.5 mi Variable 3.5 mph - 0.57 in Rain Rain
3:29 PM 73.9 °F - 70.0 °F 87% 29.96 in 2.0 mi Variable 4.6 mph - 0.57 in Rain Light Rain
3:36 PM 75.0 °F - 72.0 °F 90% 29.95 in 5.0 mi NNE 8.1 mph - 0.57 in Rain Light Rain
3:48 PM 75.2 °F - 71.6 °F 89% 29.95 in 5.0 mi ENE 9.2 mph - 0.57 in   Overcast
3:53 PM 75.0 °F - 71.1 °F 87% 29.96 in 5.0 mi ENE 8.1 mph - 0.57 in   Mostly Cloudy
4:37 PM 73.9 °F - 71.1 °F 91% 29.95 in 3.0 mi NE 13.8 mph 20.7 mph 0.08 in Rain Heavy Rain
4:43 PM 73.9 °F - 71.1 °F 91% 29.95 in 2.5 mi SE 16.1 mph 29.9 mph 0.11 in Rain Rain
4:51 PM 75.2 °F - 69.8 °F 83% 29.97 in 1.5 mi South 17.3 mph 27.6 mph 0.23 in Rain Heavy Rain
4:53 PM 73.9 °F - 70.0 °F 87% 29.97 in 1.0 mi SSE 15.0 mph 27.6 mph 0.33 in Rain Heavy Rain
5:00 PM 73.0 °F - 69.1 °F 87% 29.96 in 0.5 mi Variable 6.9 mph 27.6 mph 0.45 in Fog , Rain Heavy Rain
5:07 PM 73.0 °F - 70.0 °F 90% 29.97 in 0.2 mi NW 9.2 mph - 0.89 in Fog , Rain Heavy Rain
5:18 PM 73.0 °F - 70.0 °F 90% 29.96 in 1.0 mi NNE 9.2 mph - 1.08 in Rain Light Rain
5:21 PM 73.0 °F - 70.0 °F 90% 29.97 in 3.0 mi ENE 9.2 mph - 1.08 in Rain Light Rain
5:34 PM 73.0 °F - 71.1 °F 93% 29.97 in 10.0 mi NE 5.8 mph - 1.08 in Rain Light Rain
5:48 PM 73.4 °F - 69.8 °F 88% 29.98 in 7.0 mi Calm Calm - 1.10 in Rain Light Rain
5:53 PM 73.9 °F - 71.1 °F 91% 29.99 in 5.0 mi South 3.5 mph - 1.10 in Rain Light Rain
6:15 PM 75.0 °F - 71.1 °F 87% 29.96 in 10.0 mi NNE 3.5 mph - 0.02 in Rain Light Rain
6:53 PM 75.0 °F - 72.0 °F 90% 29.97 in 10.0 mi Calm Calm - 0.02 in   Overcast
7:53 PM 75.0 °F - 71.1 °F 87% 29.96 in 10.0 mi East 3.5 mph - N/A   Scattered Clouds
8:53 PM 75.0 °F - 71.1 °F 87% 29.99 in 10.0 mi Calm Calm - 0.00 in   Partly Cloudy
9:53 PM 75.9 °F - 72.0 °F 87% 29.99 in 10.0 mi Calm Calm - N/A   Scattered Clouds
10:53 PM 75.9 °F - 72.0 °F 87% 30.01 in 10.0 mi Calm Calm - 0.00 in   Partly Cloudy
11:53 PM 75.9 °F - 72.0 °F 87% 30.01 in 10.0 mi South 4.6 mph - N/A   Clear